Date String (YYYY-MM-DD hh:mm:ss) UTC,Instrument flags,absolute air pressure of the measurement (hPa),sample flow rate (lpm),inlet stack bypass flow (lpm),air temperature of the measurement (°C),ambient temperature measured by the external sensor (°C),aerosol sample conditioner tube jacket temperature (°C),OPC LED temperature (°C),internal box temperature (°C),relative humidity of the measurement (%),span deviation,mass concentration of particles derived from Lorenz-Mie calculation of OPC scattering (μg/m³),mass concentration of particles derived from Lorenz-Mie calculation of OPC scattering (μg/m³),mass concentration of particles derived from Lorenz-Mie calculation of OPC scattering (μg/m³)
DateTimeUTC,F1_M11,P_M11,Q1_M11,Q2_M11,T1_M11,T2_M11,T3_M11,T4_M11,T5_M11,U1_M11,ZSPAN_M11,X2_M11,X0_M11,X1_M11
2023-10-10 13:00:00,SystemResetWarning,0824.0,5.01,000.00,028.7,027.0,000.0,037.2,030.2,7.8,0000.0,0004.43,0008.36,0004.17
2023-10-10 13:01:00,SystemResetWarning,0824.0,5.00,000.00,028.6,027.0,000.0,037.1,030.2,7.8,0000.0,0004.45,0007.30,0004.18
2023-10-10 13:02:00,SystemResetWarning,0824.0,5.00,000.00,028.6,027.0,000.0,037.2,030.2,7.8,0000.6,0004.44,0007.24,0004.18
2023-10-10 13:03:00,SystemResetWarning,0824.0,5.00,000.00,028.6,027.0,000.0,037.1,030.2,7.8,0003.8,0004.42,0007.32,0004.14
2023-10-10 13:04:00,SystemResetWarning,0824.0,5.00,000.00,028.6,027.0,000.0,037.1,030.2,7.8,0003.4,0004.39,0007.43,0004.11
2023-10-10 13:05:00,SystemResetWarning,0824.0,5.00,000.00,028.6,027.0,000.0,037.1,030.2,7.9,0003.6,0004.39,0007.46,0004.09
2023-10-10 13:06:00,SystemResetWarning,0824.0,5.00,000.00,028.6,027.0,000.0,037.1,030.2,7.9,0003.2,0004.36,0007.42,0004.05
2023-10-10 13:07:00,SystemResetWarning,0824.0,5.00,000.00,028.6,027.0,000.0,037.1,030.2,7.8,0000.7,0004.29,0007.27,0003.99
2023-10-10 13:08:00,SystemResetWarning,0824.1,4.99,000.00,028.6,027.0,000.0,037.1,030.2,7.7,0000.0,0004.25,0007.62,0003.93
2023-10-10 13:09:00,SystemResetWarning,0824.1,5.00,000.00,028.6,027.0,000.0,037.1,030.2,7.7,0000.0,0004.20,0007.60,0003.88
2023-10-10 13:10:00,SystemResetWarning,0824.1,5.00,000.00,028.6,027.0,000.0,037.1,030.2,7.7,0000.0,0004.14,0007.38,0003.84
2023-10-10 13:11:00,SystemResetWarning,0824.1,5.01,000.00,028.6,026.9,000.0,037.1,030.2,7.7,0000.0,0004.06,0007.17,0003.78
2023-10-10 13:12:00,SystemResetWarning,0824.1,5.00,000.00,028.6,026.9,000.0,037.1,030.2,7.7,0000.0,0004.03,0007.20,0003.75
2023-10-10 13:13:00,SystemResetWarning,0824.1,5.00,000.00,028.6,026.9,000.0,037.1,030.2,7.7,0000.0,0004.01,0007.58,0003.72
2023-10-10 13:14:00,SystemResetWarning,0824.1,5.00,000.00,028.6,026.9,000.0,037.1,030.2,7.7,0000.0,0003.97,0007.43,0003.71
2023-10-10 13:15:00,SystemResetWarning,0824.2,5.00,000.00,028.6,026.9,000.0,037.1,030.1,7.7,0000.0,0003.91,0007.13,0003.68
2023-10-10 13:16:00,SystemResetWarning,0824.2,5.00,000.00,028.6,026.9,000.0,037.1,030.1,7.7,0000.0,0003.88,0007.46,0003.65
2023-10-10 13:17:00,SystemResetWarning,0824.2,5.00,000.00,028.5,026.8,000.0,037.1,030.2,7.7,0000.0,0003.84,0007.53,0003.64
2023-10-10 13:18:00,SystemResetWarning,0824.2,5.00,000.00,028.5,026.8,000.0,037.1,030.2,7.7,0000.0,0003.86,0007.54,0003.66
2023-10-10 13:19:00,SystemResetWarning,0824.1,5.00,000.00,028.5,026.8,000.0,037.1,030.1,7.7,0000.0,0003.85,0007.13,0003.67
2023-10-10 13:20:00,SystemResetWarning,0824.1,5.00,000.00,028.5,026.8,000.0,037.1,030.1,7.7,0000.0,0003.88,0007.16,0003.70
2023-10-10 13:21:00,SystemResetWarning,0824.1,5.00,000.00,028.5,026.8,000.0,037.0,030.2,7.7,0000.0,0003.91,0007.29,0003.71
2023-10-10 13:22:00,SystemResetWarning,0824.2,4.99,000.00,028.5,026.8,000.0,037.0,030.1,7.7,0000.0,0003.91,0007.42,0003.70
2023-10-10 13:23:00,SystemResetWarning,0824.2,4.99,000.00,028.5,026.8,000.0,037.0,030.1,7.7,0000.0,0003.89,0007.25,0003.67
2023-10-10 13:24:00,SystemResetWarning,0824.2,5.00,000.00,028.5,026.8,000.0,037.0,030.1,7.7,0000.0,0003.84,0006.58,0003.64
2023-10-10 13:25:00,SystemResetWarning,0824.2,5.00,000.00,028.5,026.8,000.0,037.0,030.1,7.7,0000.0,0003.84,0006.63,0003.62
2023-10-10 13:26:00,SystemResetWarning,0824.2,5.00,000.00,028.5,026.8,000.0,037.0,030.1,7.6,0000.0,0003.85,0006.72,0003.62
2023-10-10 13:27:00,SystemResetWarning,0824.1,5.00,000.00,028.5,026.9,000.0,037.0,030.1,7.6,0000.0,0003.83,0006.08,0003.61
2023-10-10 13:28:00,SystemResetWarning,0824.1,5.00,000.00,028.5,026.9,000.0,037.0,030.1,7.6,0000.0,0003.86,0005.87,0003.62
2023-10-10 13:29:00,SystemResetWarning,0824.1,5.00,000.00,028.5,026.9,000.0,037.0,030.1,7.6,0000.0,0003.86,0005.90,0003.61
2023-10-10 13:30:00,SystemResetWarning,0824.1,5.01,000.00,028.5,026.9,000.0,037.0,030.1,7.5,0000.0,0003.85,0005.83,0003.59
2023-10-10 13:31:00,SystemResetWarning,0824.1,4.99,000.00,028.5,026.9,000.0,037.0,030.1,7.6,0000.0,0003.83,0006.72,0003.56
2023-10-10 13:32:00,SystemResetWarning,0824.1,4.99,000.00,028.5,026.9,000.0,037.0,030.1,7.6,0000.0,0003.82,0007.03,0003.55
2023-10-10 13:33:00,SystemResetWarning,0824.1,5.00,000.00,028.5,026.9,000.0,037.0,030.1,7.6,0000.0,0003.80,0006.73,0003.55
2023-10-10 13:34:00,SystemResetWarning,0824.1,5.01,000.00,028.5,026.9,000.0,037.0,030.1,7.6,0000.0,0003.80,0006.82,0003.56
2023-10-10 13:35:00,SystemResetWarning,0824.1,5.00,000.00,028.5,026.9,000.0,037.0,030.1,7.6,0000.0,0003.82,0006.89,0003.56
2023-10-10 13:36:00,SystemResetWarning,0824.1,5.01,000.00,028.5,026.9,000.0,037.0,030.1,7.6,0000.0,0003.81,0006.83,0003.56
2023-10-10 13:37:00,SystemResetWarning,0824.1,5.00,000.00,028.5,026.9,000.0,037.0,030.1,7.7,0000.0,0003.82,0006.87,0003.56
2023-10-10 13:38:00,SystemResetWarning,0824.2,4.99,000.00,028.5,026.9,000.0,037.0,030.1,7.7,0000.0,0003.84,0006.96,0003.56
2023-10-10 13:39:00,SystemResetWarning,0824.1,5.00,000.00,028.5,026.9,000.0,037.0,030.1,7.7,0000.0,0003.83,0006.90,0003.56
2023-10-10 13:40:00,SystemResetWarning,0824.1,4.99,000.00,028.5,026.9,000.0,037.0,030.1,7.7,0000.0,0003.81,0006.88,0003.55
2023-10-10 13:41:00,SystemResetWarning,0824.2,5.01,000.00,028.5,026.9,000.0,037.0,030.1,7.7,0000.0,0003.81,0006.93,0003.54
2023-10-10 13:42:00,SystemResetWarning,0824.2,5.00,000.00,028.5,026.9,000.0,037.0,030.1,7.8,0000.0,0003.82,0006.29,0003.54
2023-10-10 13:43:00,SystemResetWarning,0824.3,5.00,000.00,028.5,026.9,000.0,037.0,030.1,7.8,0000.0,0003.81,0005.89,0003.53
2023-10-10 13:44:00,SystemResetWarning,0824.3,5.00,000.00,028.5,027.0,000.0,037.0,030.1,7.8,0000.0,0003.83,0006.00,0003.54
2023-10-10 13:45:00,SystemResetWarning,0824.3,5.00,000.00,028.5,027.0,000.0,037.0,030.1,7.8,0000.0,0003.83,0005.94,0003.54
2023-10-10 13:46:00,SystemResetWarning,0824.3,5.00,000.00,028.5,026.9,000.0,037.0,030.1,7.7,0000.0,0003.82,0005.94,0003.52
2023-10-10 13:47:00,SystemResetWarning,0824.3,4.99,000.00,028.5,026.9,000.0,037.0,030.1,7.8,0000.0,0003.82,0006.07,0003.51
2023-10-10 13:48:00,SystemResetWarning,0824.3,5.00,000.00,028.5,027.0,000.0,037.0,030.1,7.6,0000.0,0003.82,0006.20,0003.49
2023-10-10 13:49:00,SystemResetWarning,0824.3,5.00,000.00,028.5,027.0,000.0,037.0,030.2,7.6,0000.0,0003.81,0006.73,0003.48
2023-10-10 13:50:00,SystemResetWarning,0824.3,5.00,000.00,028.5,027.0,000.0,037.0,030.2,7.5,0000.0,0003.77,0007.67,0003.46
2023-10-10 13:51:00,SystemResetWarning,0824.3,5.01,000.00,028.5,027.0,000.0,037.0,030.2,7.6,0000.0,0003.76,0007.66,0003.45
2023-10-10 13:52:00,SystemResetWarning,0824.3,5.01,000.00,028.6,027.0,000.0,037.0,030.1,7.7,0000.0,0003.73,0007.59,0003.44
2023-10-10 13:53:00,SystemResetWarning,0824.3,5.00,000.00,028.6,027.0,000.0,037.0,030.1,7.7,0000.0,0003.68,0007.35,0003.42
2023-10-10 13:54:00,SystemResetWarning,0824.3,4.99,000.00,028.6,027.0,000.0,037.0,030.2,7.7,0000.0,0003.65,0007.30,0003.41
2023-10-10 13:55:00,SystemResetWarning,0824.3,4.99,000.00,028.6,027.0,000.0,037.0,030.2,7.7,0000.0,0003.60,0007.33,0003.39
2023-10-10 13:56:00,SystemResetWarning,0824.3,5.00,000.00,028.6,027.0,000.0,037.0,030.2,7.8,0000.0,0003.58,0007.33,0003.37
2023-10-10 13:57:00,SystemResetWarning,0824.3,5.01,000.00,028.6,027.1,000.0,037.0,030.1,7.8,0000.0,0003.56,0007.31,0003.36
2023-10-10 13:58:00,SystemResetWarning,0824.3,5.01,000.00,028.6,027.1,000.0,037.0,030.1,7.8,0000.0,0003.53,0007.14,0003.34
2023-10-10 13:59:00,SystemResetWarning,0824.3,5.00,000.00,028.6,027.1,000.0,037.0,030.1,7.9,0000.0,0003.51,0006.95,0003.33
